RH
98 97 82 70 98 92 78 83 96 92 90 86 88 95 92 93 89 82 78 76 77 65 50 42 33 26 21
100 88 58 80 91 80 70 100 82 85 75 74 88 90 100 98 97 100 86 66 53 42 34 28 23 21 19
99 83 86 54 52 70 89 92 88 80 90 93 98 100 100 100 94 72 58 29 19 16 15 11 9 7 6
69 59 99 81 62 84 99 99 97 98 97 90 87 76 52 31 17 12 8 7 6 6 5 5 5 5 5
93 97 97 62 70 96 100 100 94 70 49 30 18 12 9 6 5 4 4 5 5 6 6 5 6 9 11
76 96 100 100 100 96 77 30 17 11 10 7 5 4 4 4 5 5 6 5 4 5 7 11 12 12 13
100 96 85 64 35 19 11 8 7 6 6 4 4 5 5 5 5 4 4 7 10 12 13 13 13 19 35
46 26 18 14 10 9 7 5 4 4 4 6 6 5 4 6 11 16 18 20 20 17 14 16 31 38 36
20 15 13 10 7 5 4 4 5 6 6 5 6 9 16 24 28 31 28 21 15 17 31 40 42 38 40
16 14 9 6 5 5 7 8 8 8 8 12 15 15 21 38 39 35 27 20 24 43 49 46 41 38 39
10 8 5 4 7 10 10 10 12 14 14 15 26 26 27 29 40 42 31 26 29 41 52 56 50 45 53
7 5 7 11 14 17 20 22 23 24 24 24 26 28 32 32 32 40 28 24 27 34 39 44 58 68 68
6 9 14 19 22 26 27 28 30 30 31 28 27 32 32 29 29 37 29 36 28 27 35 54 72 72 81
10 17 22 22 24 29 33 34 36 37 38 37 34 34 35 32 32 35 36 27 24 26 39 72 84 79 75
17 24 24 26 30 33 37 41 43 45 47 43 40 39 41 38 32 36 34 32 24 30 64 93 100 85 77
26 28 31 34 37 38 41 44 47 48 47 50 50 43 43 50 36 41 47 40 23 23 66 88 100 100 88
31 36 42 46 48 49 49 48 48 51 57 55 51 41 37 39 45 46 46 36 19 22 60 88 94 100 95
Wind_Speed
50 49 55 56 59 59 62 67 67 65 65 64 65 66 71 70 68 68 70 73 76 76 75 76 77 79 79
57 56 58 56 67 68 70 64 68 65 65 70 70 70 72 71 73 73 73 72 74 75 77 79 80 82 85
60 58 62 64 65 67 73 74 72 68 70 65 63 64 68 72 74 72 74 75 78 80 83 85 88 89 90
70 61 62 65 66 68 68 69 64 60 61 63 65 67 69 71 73 77 80 83 85 88 90 90 89 84 77
59 61 65 67 69 68 62 60 60 62 63 66 68 71 75 79 82 85 87 88 88 87 83 73 62 54 55
63 63 65 69 60 61 59 60 64 69 70 73 76 78 82 85 85 84 83 80 74 62 52 47 48 52 52
54 56 56 55 58 60 63 67 71 75 76 78 79 78 78 78 76 68 59 51 46 45 46 47 49 47 44
49 52 55 58 62 65 68 71 75 77 76 72 73 65 54 47 42 40 42 44 45 46 46 45 42 40 39
53 56 60 63 65 68 70 71 70 67 62 51 43 35 33 37 39 42 44 44 45 44 41 39 39 38 39
56 60 63 65 66 66 65 58 52 45 40 37 38 36 33 37 39 41 43 45 42 41 42 41 38 37 42
58 62 65 64 59 55 50 46 45 44 42 39 40 40 36 32 34 41 41 42 41 42 41 40 40 43 43
63 64 55 50 47 46 45 45 44 43 42 39 35 35 34 32 32 36 37 37 39 38 37 38 40 43 43
61 51 45 45 45 44 42 39 37 36 36 35 33 32 32 31 30 34 33 32 37 36 36 35 38 40 41
48 41 42 43 43 40 38 36 35 36 36 35 35 33 32 33 33 33 35 33 32 34 33 31 34 37 35
39 37 35 36 37 36 35 35 35 36 37 37 36 35 35 35 34 35 36 35 34 31 30 27 30 35 32
34 31 31 32 33 34 33 34 35 36 36 38 38 38 37 35 39 36 37 38 36 31 30 26 28 38 34
32 31 30 31 33 35 36 35 35 36 36 37 38 41 37 33 35 40 37 38 35 29 31 31 28 33 35
Wind_Direction
270 282 284 286 290 281 281 284 287 283 283 284 284 281 277 276 278 279 280 279 279 280 281 280 279 278 277
279 283 284 280 280 284 286 289 286 286 284 285 282 282 274 275 276 278 280 281 282 281 281 280 279 278 278
281 287 290 285 283 289 285 282 284 286 284 283 280 277 274 274 279 287 288 285 282 281 281 280 280 281 282
280 283 282 281 287 288 285 283 282 283 281 283 286 289 291 291 286 284 284 284 284 283 283 283 283 284 282
282 286 286 287 286 288 282 282 291 292 290 290 288 286 286 286 286 287 287 286 285 285 285 285 282 278 275
285 281 282 283 284 292 295 292 290 290 289 289 288 288 288 287 287 287 286 287 286 283 282 280 279 279 279
287 290 293 295 294 292 293 293 292 290 290 290 290 290 289 289 288 286 283 283 285 286 286 284 282 279 274
293 293 295 295 295 296 295 294 292 291 292 293 292 293 290 286 285 287 289 290 291 292 290 286 281 275 273
295 296 296 297 297 297 297 296 297 296 297 295 294 293 291 291 292 292 292 294 296 295 291 286 282 274 275
297 298 300 302 303 301 301 300 300 300 302 301 296 293 291 292 293 292 295 297 298 296 295 293 287 277 278
303 305 306 306 301 299 300 300 300 297 296 293 291 292 291 284 291 294 295 296 296 295 294 292 288 287 288
308 311 304 299 299 300 300 298 297 296 295 293 291 289 289 287 291 291 294 295 294 293 292 290 291 292 296
313 303 300 300 300 301 301 300 300 298 296 296 295 292 291 291 294 296 294 295 296 298 295 292 291 293 296
302 299 303 304 304 303 302 303 303 303 302 302 300 297 299 300 302 303 303 304 302 301 294 291 288 289 293
298 303 309 312 312 312 309 308 308 307 305 304 302 299 299 303 303 307 307 312 311 301 293 298 294 294 300
296 303 312 317 321 322 320 316 312 311 310 304 302 299 300 305 305 307 306 307 310 309 303 305 296 292 300
293 299 307 314 317 318 320 321 318 314 309 308 307 300 298 298 300 303 305 306 308 310 305 302 298 292 298